OBJECT J

Last updated on Tue Oct 09 2018 08:17:17 GMT+0000 (Coordinated Universal Time)

1 43188U 18014J 18282.22659430 .00000802 00000-0 75604-4 0 9996 2 43188 97.7165 189.1879 0012408 125.7323 234.5054 14.96512584 37370
UTC large
Height (km)
Speed (km/s)
/
Latitude / Longitude
Inclination (degrees)
Orbital Period (minutes)
Azimuth
Elevation
Range (km)
Doppler Factor

Next 0 passes for location: London (51.5072 / 0.1276)

Sorry there are no passes over London.